CARTOSAT-2B

Last updated on Mon Sep 21 2026 00:02:45 GMT+0000 (Coordinated Universal Time)

1 36795U 10035A 26263.61988122 -.00000068 00000+0 -20811-5 0 9997 2 36795 97.9861 313.5094 0010164 239.9584 120.0619 14.78650206873959
UTC large
Height (km)
Speed (km/s)
/
Latitude / Longitude
Inclination (degrees)
Orbital Period (minutes)
Azimuth
Elevation
Range (km)
Doppler Factor

Next 0 passes for location: London (51.5072 / 0.1276)

No passes found over London.
CARTOSAT-2B